Unicom:                    122.8

AWOS:                  118.275

Elevation           1458’ MSL

TPA:                   2500’ MSL

06/24:         5003’ L   75’ W

PAPI:       06/Left     24/Left

(Operate lights on unicom freq.)

Traffic Pattern: Left

Beacon: Sunset to Sunrise

Windsock: yes, lighted

Segmented Circle: No

 

Cleveland Center: 126.72/291.65

FSS: Altoona

[Source: ADDS]
METAR
KFKL 080756Z AUTO 32003KT 5SM -RA BR FEW002 OVC035 02/01 A2985 RMK AO2 RAB15 SLP119 P0000 T00170011 FZRANO =
KFKL 080739Z 0808/0906 29003KT 2SM -SHRASN BR BKN030 FM081000 28005KT 4SM -SHRASN OVC015 FM081200 30007KT P6SM OVC007 FM081800 30007KT P6SM OVC025 FM082100 28006KT P6SM OVC050 FM090000 25003KT P6SM BKN050
TAF
KFKL 080739Z 0808/0906 29003KT 2SM -SHRASN BR BKN030 FM081000 28005KT 4SM -SHRASN OVC015 FM081200 30007KT P6SM OVC007 FM081800 30007KT P6SM OVC025 FM082100 28006KT P6SM OVC050 FM090000 25003KT P6SM BKN050 =
[Source: ADDS]
METAR
KDUJ 080753Z AUTO 00000KT 8SM SCT044 OVC055 01/00 A2981 RMK AO2 SLP106 I1000 T00110000 =
KDUJ 080615Z 0806/0906 00000KT 2SM BR BKN050 FM081000 29005KT 2SM -SHRASN BR OVC015 FM081200 30005KT 5SM -SHRA BKN007 FM081500 29009KT P6SM VCSH BKN015 FM082100 29011KT P6SM OVC050 FM090100 29004KT P6SM BKN050
TAF
KDUJ 080615Z 0806/0906 00000KT 2SM BR BKN050 FM081000 29005KT 2SM -SHRASN BR OVC015 FM081200 30005KT 5SM -SHRA BKN007 FM081500 29009KT P6SM VCSH BKN015 FM082100 29011KT P6SM OVC050 FM090100 29004KT P6SM BKN050 =

About Us.

            

Clarion County Airport Authority

Overview -The Clarion County Airport Authority is a municipal authority created in 1967, under the Municipal Authorities Act of 1945.  The original purpose of the Authority was to site and construct a facility to replace Rhea Airport, a small grass airport at the US 322, PA 66 intersection, which was closed due to planned highway construction.

    The Airport Authority completed construction of the Clarion County Airport in 1975, and is responsible for overall operation of the airport.   The day to day responsibilities of airport operations are delegated to the Airport Manager, who is one of two employees of the Authority. 

 

    The Clarion County Airport supports the needs of business and recreational flyers in the area.  It’s close proximity to both Cook Forest State Park and the Allegheny National Forest affords the Airport the opportunity to provide airport users access to numerous hunting, fishing, golfing and camping activities.  In doing so, the Airport supports many of the region’s primary economic activities.


     Mission Statement  – The mission of the Clarion County Airport Authority is to provide the citizens of Clarion County and surrounding areas with safe and efficient access to the National Air Transportation System by providing and operating a general aviation business service airport.   The administration of the airport will be done in a manner that emphasizes safety and economic development for the Clarion County area, while utilizing resources in a way that will result in the most efficient use of public funds, and resulting in the least possible expense to the County taxpayers.

 

2018 Authority Officers

      Dr. Norm Wagner      President                                                                                                                                                         

      Dave Cyphert             Vice President

      Andrew Kirby             Secretary

      David Cox                   Treasurer